Temp
9 9 9 9 9 9 9 10 9 10 10 10 10 10 10 10 10 10 11 11 11 11 11 10 10 11 10 10 10 10 9 10 9 8 9 9 9 10 10 10 10 10 10 9 9
9 9 9 9 9 9 9 9 9 9 10 10 10 10 10 10 10 10 10 10 10 10 10 11 10 10 10 9 9 9 9 10 9 9 9 9 8 9 9 10 10 10 9 9 9
8 8 9 9 9 9 9 9 9 9 10 10 10 10 10 10 10 10 9 10 10 10 10 10 10 10 10 10 9 9 10 9 9 8 8 9 9 8 8 10 10 10 9 9 9
8 8 8 9 9 9 9 9 9 10 10 10 10 10 10 10 10 9 9 9 9 9 9 9 10 10 10 9 9 9 10 9 10 9 8 8 9 10 9 10 9 9 8 8 9
8 8 8 8 9 9 9 9 9 9 9 10 10 10 9 10 10 10 9 10 9 9 9 9 9 9 9 8 7 8 9 8 9 10 9 9 9 8 10 10 9 9 8 8 8
8 8 8 8 8 9 9 9 9 9 9 10 10 9 9 10 10 9 9 9 9 8 8 8 8 7 8 9 8 8 7 8 8 9 8 8 8 7 11 8 8 8 9 8 8
7 7 8 8 8 8 8 9 9 9 9 9 10 9 9 9 10 10 9 9 9 8 8 7 7 7 7 7 7 6 7 8 9 8 7 7 7 9 9 8 8 8 8 9 8
8 8 8 8 9 8 8 9 9 9 9 9 10 9 9 10 10 9 9 9 9 8 7 7 7 7 7 7 6 6 6 6 9 7 7 6 7 9 8 7 7 8 8 8 9
7 8 8 8 8 8 8 8 9 9 9 9 9 9 9 10 10 9 8 8 7 7 7 6 6 6 6 6 5 5 6 6 6 7 6 6 6 7 7 7 7 7 7 8 8
6 7 7 7 8 8 8 8 8 8 8 8 8 9 9 9 8 8 7 7 7 6 6 6 5 5 6 6 5 6 5 5 5 7 6 5 6 6 6 7 7 8 8 8 8
6 6 6 7 7 7 8 7 7 8 8 8 8 9 8 8 8 7 6 7 6 6 6 6 5 5 6 5 5 4 4 4 4 5 4 5 5 6 6 6 7 7 8 8 7
6 6 6 7 7 7 7 7 7 6 8 7 8 8 7 7 7 7 7 6 6 5 4 4 4 5 4 4 3 3 3 4 4 4 4 4 5 5 6 6 6 7 8 8 8
5 6 6 6 6 6 6 5 6 6 6 8 8 7 7 7 6 6 5 5 4 4 4 3 4 4 3 3 3 3 3 4 4 4 4 4 4 5 6 7 7 7 8 7 8
5 5 5 5 5 4 5 5 5 4 5 6 6 6 6 5 5 4 4 4 3 3 3 2 3 3 3 3 3 3 3 4 4 4 4 4 3 5 6 8 8 8 7 8 7
4 4 4 4 4 3 3 3 2 2 1 5 4 4 4 4 3 4 4 3 3 3 2 3 3 3 3 3 3 3 3 3 4 4 4 3 3 5 5 6 7 7 7 7 8
4 4 3 4 3 2 2 1 1 1 0 3 3 3 3 2 2 2 2 2 2 3 3 2 2 2 3 3 3 4 3 3 3 3 2 3 3 4 5 5 6 6 6 7 7
4 4 3 3 2 1 1 0 0 -0 3 2 2 2 2 2 1 1 2 2 2 2 2 2 2 2 2 3 2 3 3 -1 0 0 1 3 3 4 4 5 4 5 5 6 6
3 3 3 3 2 0 -1 -1 -1 1 2 2 2 2 1 1 1 1 1 1 1 0 1 1 1 0 0 1 2 1 -0 0 -1 -2 -2 2 2 4 4 4 4 5 4 5 5
2 3 3 1 1 -1 -1 -1 -0 1 1 1 1 1 1 1 0 -0 -0 -0 -0 0 0 -0 -2 -2 -2 -1 0 -1 -1 -2 -2 -1 -2 0 2 3 4 4 4 4 4 4 5
3 2 3 1 -1 -1 -1 -1 -1 -1 -0 -0 -0 -0 -0 -1 -1 -1 -1 -2 -1 -1 -0 -2 -2 -3 -3 -2 -2 -3 -3 -3 -3 -4 -3 -0 0 2 3 4 3 4 4 4 5
2 1 2 0 -2 -1 -2 -2 -1 -1 -1 -2 -1 -2 -2 -1 -2 -2 -3 -3 -3 -3 -4 -4 -5 -4 -5 -5 -4 -4 -4 -5 -6 -5 -5 -3 -1 -2 -2 -1 0 0 0 2 4
0 -1 0 -1 -2 -2 -2 -1 -2 -1 -2 -3 -4 -5 -4 -3 -3 -3 -4 -4 -4 -4 -5 -5 -5 -6 -6 -6 -6 -7 -8 -7 -7 -7 -7 -7 -3 -3 -3 -3 -2 -0 -0 -0 2
-0 -1 -2 -3 -3 -2 -2 -2 -2 -2 -2 -3 -4 -6 -4 -4 -5 -5 -5 -5 -5 -5 -5 -5 -7 -7 -5 -7 -7 -7 -7 -8 -9 -9 -8 -7 -4 -4 -4 -5 -5 -2 -2 -2 0
-2 -3 -3 -2 -2 -2 -2 -2 -3 -3 -4 -5 -7 -6 -6 -7 -7 -5 -5 -5 -5 -6 -6 -7 -8 -8 -8 -9 -9 -9 -9 -9 -9 -9 -9 -8 -8 -5 -5 -5 -5 -5 -6 -2 -1
-1 -2 -2 -2 -2 -3 -3 -3 -4 -4 -5 -6 -8 -7 -6 -8 -7 -5 -5 -5 -6 -7 -7 -8 -9 -9 -9 -9 -9 -10 -9 -9 -9 -8 -9 -8 -8 -7 -6 -5 -5 -4 -4 -3 -2
-3 -3 -3 -3 -4 -4 -5 -5 -5 -5 -6 -8 -7 -6 -8 -6 -5 -5 -5 -6 -6 -7 -8 -9 -9 -9 -9 -9 -9 -9 -9 -8 -8 -8 -8 -8 -8 -7 -6 -6 -5 -4 -4 -4 -2
-5 -5 -5 -5 -5 -5 -5 -5 -5 -6 -7 -8 -7 -8 -7 -6 -6 -5 -5 -6 -6 -7 -7 -8 -8 -8 -9 -9 -10 -9 -7 -8 -8 -8 -8 -8 -7 -7 -6 -6 -5 -4 -4 -4 -4
Height
3167 3166 3165 3164 3163 3162 3160 3159 3157 3157 3156 3154 3153 3153 3152 3152 3149 3149 3149 3149 3147 3146 3145 3145 3145 3145 3145 3145 3145 3145 3146 3146 3147 3146 3145 3144 3145 3144 3144 3143 3143 3142 3141 3143 3143
3165 3164 3163 3162 3161 3160 3158 3157 3155 3154 3153 3151 3150 3149 3149 3149 3148 3147 3146 3145 3145 3145 3144 3143 3142 3143 3143 3143 3143 3142 3141 3142 3142 3141 3141 3141 3141 3141 3141 3141 3140 3137 3138 3140 3139
3164 3163 3163 3162 3161 3159 3158 3156 3154 3152 3150 3149 3148 3147 3146 3146 3145 3144 3143 3144 3143 3143 3142 3142 3141 3141 3140 3139 3141 3140 3139 3140 3140 3139 3138 3137 3138 3137 3136 3136 3138 3135 3134 3134 3134
3164 3162 3161 3159 3158 3156 3154 3153 3151 3150 3148 3147 3145 3144 3143 3143 3145 3141 3141 3140 3140 3140 3140 3139 3139 3139 3139 3137 3137 3135 3135 3136 3136 3136 3134 3133 3133 3132 3132 3132 3132 3132 3130 3129 3130
3162 3160 3158 3156 3154 3153 3151 3150 3148 3146 3144 3143 3142 3141 3140 3140 3140 3138 3137 3136 3136 3136 3136 3136 3136 3136 3135 3135 3134 3131 3131 3131 3130 3130 3129 3129 3128 3126 3125 3127 3126 3127 3126 3125 3124
3158 3157 3155 3153 3151 3149 3148 3146 3145 3143 3141 3140 3138 3137 3137 3137 3135 3134 3133 3133 3133 3132 3132 3132 3132 3130 3129 3129 3129 3128 3126 3125 3124 3125 3124 3123 3123 3122 3122 3121 3119 3120 3120 3120 3120
3154 3152 3151 3149 3148 3146 3144 3143 3141 3139 3137 3136 3135 3133 3133 3132 3130 3131 3130 3129 3129 3128 3128 3127 3126 3126 3126 3126 3125 3122 3120 3120 3122 3123 3119 3118 3114 3114 3117 3115 3114 3114 3115 3114 3114
3151 3149 3147 3145 3144 3142 3141 3139 3137 3135 3133 3132 3130 3129 3128 3127 3125 3125 3124 3124 3123 3123 3124 3123 3122 3122 3121 3121 3120 3119 3118 3115 3120 3119 3118 3113 3104 3111 3113 3111 3110 3110 3110 3110 3111
3148 3145 3143 3141 3139 3137 3136 3134 3131 3129 3128 3126 3126 3125 3123 3122 3121 3121 3120 3119 3120 3121 3121 3119 3118 3119 3120 3118 3116 3114 3109 3110 3111 3114 3113 3111 3105 3107 3107 3105 3105 3105 3106 3106 3105
3145 3142 3139 3137 3135 3133 3131 3129 3127 3126 3124 3122 3121 3123 3120 3120 3118 3118 3116 3115 3115 3115 3116 3117 3114 3113 3115 3115 3110 3110 3108 3106 3105 3109 3105 3104 3100 3101 3102 3101 3099 3099 3099 3099 3099
3142 3139 3136 3134 3132 3129 3128 3127 3128 3125 3122 3120 3119 3118 3115 3115 3113 3114 3111 3111 3111 3110 3108 3110 3109 3106 3111 3110 3108 3106 3105 3103 3104 3103 3101 3098 3092 3094 3096 3096 3093 3091 3092 3091 3091
3138 3136 3133 3130 3128 3127 3122 3121 3120 3119 3117 3113 3112 3108 3109 3108 3107 3105 3107 3107 3105 3104 3104 3104 3097 3103 3104 3103 3102 3104 3102 3099 3097 3097 3097 3093 3082 3087 3088 3088 3087 3085 3083 3083 3083
3134 3131 3130 3126 3124 3122 3118 3117 3114 3111 3108 3108 3104 3101 3102 3101 3098 3100 3101 3099 3099 3098 3099 3099 3100 3099 3099 3099 3099 3098 3099 3097 3095 3094 3091 3088 3077 3079 3081 3080 3078 3075 3075 3076 3077
3128 3125 3124 3122 3122 3118 3114 3112 3109 3107 3103 3101 3097 3095 3096 3095 3096 3094 3093 3097 3096 3096 3095 3094 3094 3093 3094 3094 3095 3091 3096 3093 3092 3090 3084 3084 3075 3073 3075 3072 3071 3070 3069 3069 3069
3121 3119 3117 3117 3116 3114 3112 3109 3106 3106 3105 3094 3092 3092 3092 3094 3092 3091 3090 3089 3091 3092 3093 3092 3091 3090 3088 3090 3090 3088 3088 3089 3087 3085 3080 3079 3081 3064 3069 3068 3066 3064 3062 3063 3065
3116 3114 3111 3111 3112 3109 3107 3106 3106 3109 3099 3091 3088 3088 3089 3089 3088 3088 3089 3089 3089 3088 3089 3089 3088 3088 3085 3084 3085 3085 3085 3085 3082 3081 3075 3075 3077 3051 3064 3065 3061 3060 3060 3061 3062
3110 3107 3105 3103 3105 3103 3103 3102 3107 3101 3093 3088 3087 3087 3087 3085 3084 3085 3084 3086 3085 3084 3083 3084 3082 3080 3081 3081 3081 3081 3082 3085 3082 3077 3070 3068 3070 3056 3061 3060 3057 3054 3055 3061 3062
3103 3099 3096 3096 3095 3096 3098 3099 3096 3087 3086 3084 3084 3083 3083 3081 3081 3081 3079 3080 3079 3080 3080 3077 3080 3078 3077 3078 3078 3078 3080 3079 3077 3074 3069 3067 3061 3058 3056 3055 3055 3053 3053 3056 3057
3095 3091 3089 3090 3088 3090 3092 3086 3078 3078 3081 3083 3081 3079 3077 3077 3079 3078 3074 3074 3075 3077 3077 3075 3074 3072 3074 3072 3075 3075 3077 3078 3075 3071 3071 3058 3054 3055 3052 3051 3050 3051 3051 3051 3052
3082 3080 3077 3081 3082 3081 3079 3073 3072 3072 3075 3074 3077 3075 3071 3071 3074 3075 3069 3069 3069 3071 3071 3071 3072 3071 3071 3071 3070 3072 3075 3075 3073 3070 3062 3048 3046 3041 3042 3045 3044 3045 3045 3047 3048
3071 3069 3064 3070 3072 3071 3063 3061 3065 3064 3068 3070 3067 3068 3066 3067 3069 3071 3069 3069 3068 3065 3066 3068 3069 3070 3069 3067 3069 3069 3069 3069 3068 3065 3057 3050 3041 3038 3037 3036 3037 3038 3040 3040 3043
3061 3060 3056 3057 3062 3058 3055 3057 3060 3055 3055 3057 3059 3059 3060 3062 3061 3064 3064 3067 3067 3063 3063 3064 3064 3063 3063 3062 3060 3063 3065 3064 3063 3059 3054 3050 3039 3037 3035 3035 3036 3036 3037 3037 3036
3052 3052 3048 3049 3046 3047 3048 3050 3049 3046 3046 3046 3047 3050 3055 3056 3062 3058 3058 3061 3064 3063 3060 3060 3059 3059 3057 3062 3060 3062 3061 3062 3062 3059 3051 3048 3034 3033 3032 3033 3032 3031 3031 3032 3031
3046 3044 3042 3037 3035 3036 3038 3035 3035 3036 3035 3040 3039 3042 3047 3049 3054 3057 3056 3058 3058 3058 3057 3055 3056 3057 3058 3057 3056 3055 3057 3055 3055 3052 3047 3041 3032 3027 3028 3030 3031 3029 3026 3021 3025
3039 3035 3032 3030 3025 3026 3026 3025 3028 3027 3026 3031 3037 3037 3037 3042 3049 3051 3052 3055 3056 3055 3053 3053 3051 3053 3054 3052 3052 3051 3049 3046 3044 3042 3038 3033 3029 3025 3024 3023 3023 3023 3021 3021 3019
3031 3030 3024 3023 3021 3023 3022 3021 3020 3021 3024 3022 3025 3036 3036 3040 3043 3045 3046 3049 3051 3050 3049 3049 3048 3048 3046 3048 3048 3043 3039 3037 3035 3032 3026 3023 3017 3021 3020 3019 3018 3017 3015 3015 3011
3021 3020 3018 3017 3016 3015 3015 3015 3012 3012 3015 3023 3026 3030 3035 3038 3040 3044 3045 3045 3044 3044 3044 3045 3047 3047 3044 3044 3043 3038 3033 3032 3029 3024 3021 3015 3012 3012 3012 3011 3013 3014 3012 3010 3008
Wind_Speed
12 13 12 12 13 13 13 14 14 14 14 14 15 14 13 13 15 13 13 12 10 9 9 10 11 11 11 10 11 11 11 9 7 8 7 7 10 16 20 20 21 17 21 17 15
11 11 11 12 12 13 13 14 14 14 14 15 16 16 15 13 13 13 13 7 4 4 6 8 10 11 12 13 12 14 16 10 12 16 15 16 14 15 19 17 16 23 20 19 20
11 12 13 13 13 14 14 14 14 13 13 13 14 14 13 12 13 10 4 6 11 11 10 10 10 10 12 15 12 16 16 12 13 17 18 22 20 21 21 24 19 21 28 27 28
11 12 12 13 13 13 13 13 13 13 12 12 12 12 12 10 7 7 13 15 12 11 11 12 13 14 15 17 14 20 18 16 17 17 24 27 27 25 26 24 22 21 18 19 26
12 13 13 13 13 13 13 13 12 13 13 13 13 13 12 10 9 10 11 12 12 11 10 12 14 13 17 14 13 21 20 19 19 21 23 25 25 28 22 18 22 23 28 26 25
12 13 13 14 14 15 15 15 15 15 15 15 14 14 13 13 9 9 10 10 12 14 14 13 14 16 20 20 19 21 19 22 23 22 24 27 25 27 16 13 18 22 28 29 29
14 15 16 16 17 18 18 18 18 18 17 16 16 15 13 15 14 13 13 15 15 14 14 15 18 20 19 19 19 25 28 27 21 19 24 20 30 28 14 14 18 20 24 27 35
17 18 19 20 20 20 19 19 19 19 18 16 15 14 13 15 17 16 17 15 15 16 15 20 22 23 22 23 23 22 25 30 23 18 13 20 31 14 10 13 17 18 19 18 26
19 20 21 22 21 19 18 17 16 16 15 15 14 13 14 12 10 11 14 13 11 12 13 17 20 22 21 23 26 24 29 28 26 12 12 17 22 17 14 14 16 21 20 20 21
21 22 23 23 22 20 18 17 15 14 14 15 15 11 12 13 14 14 16 18 18 18 17 16 20 23 22 22 28 26 23 20 16 16 23 24 27 22 19 22 23 21 25 27 28
21 23 24 25 25 23 23 19 16 16 14 17 19 20 21 22 22 20 23 24 25 29 28 25 27 30 24 21 23 23 25 27 22 19 26 31 36 31 28 29 30 31 31 28 27
22 24 26 26 25 25 26 24 25 23 21 21 20 25 24 24 26 26 23 23 22 22 20 22 28 22 18 16 19 21 24 26 28 25 22 30 41 35 33 34 34 34 32 29 25
22 25 27 30 28 24 23 23 24 26 28 23 22 22 20 20 19 17 15 16 15 18 17 21 19 11 15 16 21 24 25 29 29 29 30 29 39 35 27 22 23 27 27 24 18
24 28 29 29 27 25 23 23 23 24 19 14 10 11 13 12 11 13 15 13 13 11 9 10 2 13 15 17 21 31 23 21 24 24 26 15 19 37 32 21 19 17 18 27 28
26 29 33 31 27 24 22 19 19 16 6 6 11 11 11 12 13 13 13 13 11 12 14 11 9 12 17 14 15 16 14 16 20 22 23 17 9 27 14 33 24 15 18 20 24
28 33 36 33 26 23 21 17 16 6 9 8 9 9 13 14 14 13 13 13 15 15 15 14 12 14 18 15 20 20 21 21 23 23 16 18 14 40 21 19 15 13 12 14 16
32 37 36 33 25 19 16 15 9 9 6 10 12 13 14 17 19 19 18 17 15 10 14 14 12 10 17 19 16 16 16 7 6 4 10 5 16 32 21 31 26 14 7 16 16
36 40 36 30 28 20 14 17 14 12 15 8 6 13 19 22 20 16 16 15 15 10 11 7 6 5 6 6 9 8 4 4 5 4 5 11 12 20 16 13 10 9 10 16 18
41 42 40 32 29 21 25 26 19 17 21 21 19 21 25 24 20 15 15 14 14 9 5 6 5 8 7 11 11 9 5 8 8 23 10 15 23 22 23 21 18 21 23 21 22
41 39 42 35 26 27 27 41 30 27 31 30 26 17 19 20 16 14 13 10 10 10 11 10 8 11 11 7 7 9 18 5 6 4 6 12 13 10 18 24 26 25 21 25 33
38 36 45 37 28 34 42 41 38 39 38 32 29 25 22 20 16 11 9 9 13 14 14 13 11 12 12 9 24 25 12 6 6 9 4 4 4 9 8 7 10 12 11 16 24
36 35 39 37 32 38 45 43 39 38 40 35 30 26 27 28 24 17 13 19 13 11 13 14 10 18 21 16 4 5 2 4 5 5 10 8 9 16 10 8 11 13 14 14 24
35 36 37 34 39 41 39 44 43 42 39 39 31 26 22 19 13 13 15 15 13 8 6 10 7 9 13 5 5 5 11 17 17 17 17 8 9 19 13 20 19 18 15 12 18
26 24 33 40 45 43 47 48 38 41 40 28 19 21 23 16 14 11 13 10 7 7 10 11 9 13 13 14 18 26 25 24 23 22 21 28 37 34 32 29 19 24 28 13 15
30 31 40 36 36 47 43 37 33 37 33 27 26 27 24 16 17 17 13 9 6 9 10 10 14 15 15 18 22 27 31 31 32 34 32 35 37 38 35 33 26 20 21 26 21
35 35 27 32 28 16 18 33 33 29 29 32 27 20 15 18 19 21 14 6 6 10 10 11 13 13 23 23 27 33 37 33 29 31 38 40 43 36 33 34 29 24 23 25 29
22 27 21 31 28 24 26 26 29 32 31 24 18 16 20 19 17 13 9 2 8 8 4 7 9 12 12 16 17 19 6 15 18 21 25 29 28 24 30 31 25 22 21 23 26
Wind_Direction
301 299 301 302 304 304 303 302 302 301 300 299 300 301 300 303 306 312 310 308 297 287 273 269 269 270 273 270 265 258 251 255 243 237 219 239 257 253 256 262 263 239 242 245 259
316 316 316 316 317 316 317 316 314 310 306 301 298 298 299 297 298 304 310 309 320 306 300 279 270 271 268 260 251 254 254 255 238 243 245 237 257 268 264 269 262 237 235 239 248
329 330 332 331 333 334 334 332 328 324 320 313 309 305 305 307 303 302 271 280 298 300 296 286 281 278 269 265 261 259 262 259 244 241 258 262 249 258 266 266 270 253 245 245 244
336 335 335 334 333 332 329 326 323 319 314 310 308 306 309 314 310 287 284 288 288 290 290 287 283 280 273 272 271 266 268 260 259 245 253 260 266 262 261 267 263 244 248 249 248
334 330 327 324 321 318 314 310 308 306 304 304 303 302 306 305 305 288 282 285 285 282 274 277 280 279 280 274 261 268 283 272 272 270 265 265 273 278 269 268 263 244 238 241 246
326 322 318 314 312 309 307 304 302 300 298 298 297 298 302 302 299 289 286 281 278 275 272 268 268 260 259 262 260 269 261 266 269 274 276 281 280 278 279 282 251 243 240 238 246
329 325 322 319 316 313 311 306 302 298 297 298 295 292 291 291 288 287 288 284 278 268 263 258 252 250 261 271 268 266 272 272 279 291 286 284 270 264 287 274 253 244 249 242 233
329 328 325 322 316 312 309 306 303 298 298 296 291 287 282 281 282 286 278 270 266 263 260 256 255 257 262 268 262 270 272 281 292 300 268 287 282 277 291 279 271 253 255 256 241
321 321 322 321 319 313 308 302 298 298 295 292 288 286 275 273 270 268 276 278 275 273 260 254 258 259 265 268 272 269 270 277 294 257 300 316 292 287 282 278 276 267 265 260 257
321 321 319 318 319 318 312 308 306 303 302 295 290 286 273 274 269 267 270 272 275 269 267 267 267 263 262 262 261 277 279 284 283 259 277 291 284 273 266 258 266 259 262 274 274
322 324 325 324 323 322 315 313 311 305 301 298 296 292 285 281 278 263 265 269 273 276 276 278 267 264 280 274 275 278 276 279 279 283 292 287 282 280 274 265 269 275 279 280 273
321 324 325 323 320 319 315 319 316 309 300 294 286 282 275 273 272 275 270 272 270 271 272 261 261 279 280 265 267 275 279 279 291 297 289 291 283 287 283 274 268 271 270 268 269
313 317 321 319 315 312 310 310 309 306 305 299 282 277 272 269 267 270 271 271 271 270 269 264 269 271 274 271 279 275 280 284 284 297 292 296 292 296 292 285 281 269 263 259 268
305 310 313 316 314 312 307 304 303 303 307 290 255 247 249 247 252 253 256 261 267 278 274 274 292 260 269 288 279 274 280 281 284 292 286 275 295 295 302 291 288 276 269 253 264
297 306 310 313 311 307 299 297 296 309 326 244 233 241 241 227 232 240 258 261 259 248 253 239 234 240 262 284 286 298 293 278 276 286 296 268 253 295 288 303 299 311 270 259 271
299 303 305 305 304 297 293 293 290 291 256 237 223 229 230 233 238 242 247 255 262 260 254 269 269 276 274 274 280 287 286 291 281 283 275 248 243 285 295 333 334 328 321 322 298
293 299 299 297 296 283 281 279 282 220 247 244 241 239 233 229 239 240 247 253 250 261 262 277 297 263 262 262 265 269 276 317 284 240 247 273 217 254 275 292 293 287 299 308 295
292 295 292 291 286 269 268 265 235 243 236 252 238 240 233 233 233 241 250 257 260 266 287 293 251 250 271 287 255 286 248 227 259 231 276 275 236 243 262 272 264 241 263 275 281
290 290 288 290 280 254 252 246 242 253 256 256 262 255 243 231 229 224 221 237 247 254 253 280 224 235 244 261 260 259 212 307 255 279 263 259 247 255 248 245 281 272 272 270 279
282 281 281 283 276 261 251 252 250 258 260 258 257 244 243 222 214 208 209 231 249 270 274 277 293 243 220 207 251 320 313 280 227 253 239 254 234 229 238 256 256 259 271 258 259
276 276 277 278 266 255 243 249 259 265 263 259 249 239 234 233 223 212 211 232 252 261 279 291 286 255 261 293 302 305 296 228 274 254 242 275 255 224 246 235 244 237 223 224 236
273 270 272 274 264 255 255 260 263 263 256 251 245 243 230 233 237 241 236 235 246 254 279 292 281 284 299 324 313 238 14 287 250 279 270 282 253 231 225 263 251 226 219 220 220
271 270 269 269 262 261 265 269 256 261 262 254 236 219 228 229 246 224 213 222 239 277 279 294 259 300 309 133 165 202 259 308 303 288 256 267 251 225 255 307 310 253 232 254 214
274 269 258 257 261 257 270 257 251 260 249 236 221 211 215 210 214 222 198 210 232 302 320 299 263 267 248 282 299 293 298 292 286 278 275 269 291 266 276 299 299 311 306 256 222
255 264 255 259 265 256 256 259 260 251 247 223 222 217 207 192 214 199 197 213 269 289 287 274 263 270 279 279 286 288 284 287 282 281 273 281 281 282 290 292 298 295 313 296 247
252 266 270 270 271 277 282 264 261 245 236 211 211 216 195 218 227 205 195 232 281 301 295 266 268 273 284 281 279 284 285 287 286 285 281 280 277 278 281 282 283 288 301 307 259
250 250 276 268 278 272 289 279 265 242 224 221 208 188 216 211 203 196 199 265 315 314 261 274 296 300 283 300 297 291 326 327 311 294 293 287 289 282 270 267 272 272 283 297 303